2020-079H (46834 NORAD) Tracking and Keplerian Element Data

This shows tracking and keplerian element data for the satellite.

Feedback or suggestion? Click here.




ElementValue
Catalog46834
Name2020-079H
Epoch Orbit460
Epoch Day341.18820329
Epoch Year2020
RAAN52.8088
Inclination97.2641
Eccentricity0.0010082
Argument of Perigee149.4859
Mean Anonmoly294.8617
Mean Motion15.31654583
Decay Rate6.349E-05
L11 46834U 20079H 20341.18820329 .00006349 00000-0 20991-3 0 9992
L22 46834 97.2641 52.8088 0010082 149.4859 294.8617 15.31654583 4606

Live tracking and technical data element details for 2020-079H (NORAD 46834). 2020-079H can be tracked NOW for your location showing map with azimuth and elevation plus other details from your city location.

Track the satellite on the map from your city or location and see movement details for azimuth, elevation, latitude, longitude, range, height, and movement on the map or in text.







IsCatalogInMostPopularTable: catalog: 46834, numindb: 40
Update: records affected: 1



GetName: 46834 2020-079H

Hit Count: updated at: Mon, 18 Jan 2021 16:35:12 GMT